Regional Weather Roundup
Issued by NWS

Home | Current Version | Previous Version | Text Only | Print | Product List | Glossary Off
Versions: 1 2 3 4 5 6 7 8 9 10 11 12 13 14 15 16 17 18 19 20 21 22 23 24 25 26 27 28 29 30 31 32 33 34 35 36 37 38 39 40 41 42 43 44 45 46 47 48 49 50

000
ASUS45 KPSR 290310
RWRAZ

ARIZONA HOURLY REGIONAL WEATHER ROUNDUP
NATIONAL WEATHER SERVICE PHOENIX AZ
800 PM MST SUN MAY 28 2017

NOTE: FAIR INDICATES FEW OR NO CLOUDS BELOW 12,000 FEET WITH NO
SIGNIFICANT WEATHER AND/OR OBSTRUCTIONS TO VISIBILITY.

AZZ001>003-036-290400-
NORTHWEST ARIZONA

CITY           SKY/WX    TMP DP  RH WIND       PRES   REMARKS
BULLHEAD CITY  CLEAR     95  16   5 N7        29.78S
KINGMAN        CLEAR     81  18   9 W8        29.98R
$$

AZZ004>008-015-016-018-290400-
NORTH CENTRAL ARIZONA

CITY           SKY/WX    TMP DP  RH WIND       PRES   REMARKS
GRAND CANYON   PTCLDY    60  25  26 CALM      30.21S
WILLIAMS       PTCLDY    66  25  20 SW5       30.20S
PRESCOTT       PTCLDY    72  23  16 SW7       30.07S
FLAGSTAFF      MOCLDY    63  21  20 NE6       30.21R
PAYSON         PTCLDY    75  23  14 W6        30.11S
PAGE           CLEAR     77  17  10 NE5       30.06S
$$

AZZ009>014-017-290400-
NORTHEAST ARIZONA

CITY           SKY/WX    TMP DP  RH WIND       PRES   REMARKS
WINSLOW        PTCLDY    77  14   9 NW7       30.07R
SAINT JOHNS    MOCLDY    73  16  11 N5        30.10R
WINDOW ROCK    CLEAR     61  20  20 CALM      30.21R
SHOW LOW       PTCLDY    66   9  10 CALM      30.18R
$$

AZZ540-542>544-546-548-290400-
GREATER PHOENIX AREA

CITY           SKY/WX    TMP DP  RH WIND       PRES   REMARKS
PHOENIX        PTCLDY    97  16   5 W8        29.78S
BUCKEYE        CLEAR     88  32  13 S3        29.79S
LUKE AFB       CLEAR     94  18   6 S7        29.78R
DEER VALLEY    CLEAR     91  20   7 S3        29.81R
SCOTTSDALE     CLEAR     93  22   7 W3        29.82S
MESA-FALCON    PTCLDY    93  27   9 W6        29.81S
MESA-GATEWAY   PTCLDY    91  18   6 N3        29.82S
CHANDLER       CLEAR     95  18   6 W8        29.80S
$$

AZZ539-553-290400-
SOUTHWEST MARICOPA COUNTY AND PINAL COUNTY

CITY           SKY/WX    TMP DP  RH WIND       PRES   REMARKS
CASA GRANDE    CLEAR     89  19   7 NW6       29.82S
GILA BEND      FAIR      93  16   6 W6        29.77S
$$

AZZ503-504-507>509-290400-
SOUTHEAST ARIZONA

CITY           SKY/WX    TMP DP  RH WIND       PRES   REMARKS
TUCSON         CLEAR     89  17   7 NW9       29.90R
DAVIS-MONTHAN  CLEAR     87  17   7 NW8       29.89S
RYAN FIELD     CLEAR     88  19   8 NW7       29.89R
NOGALES        CLEAR     81  13   7 CALM      29.98R
SIERRA VISTA   CLEAR     77  11   8 SW9       30.04R
DOUGLAS        CLEAR     81   6   5 SW3       29.98S
SAFFORD        CLEAR     81   7   6 E6        29.89S
$$

AZZ532-290400-
SOUTHWEST ARIZONA

CITY           SKY/WX    TMP DP  RH WIND       PRES   REMARKS
YUMA           CLEAR     92  31  11 W3        29.76S
$$

CAZ041-043-047-048-061-525>527-560>570-290400-
SOUTHERN CALIFORNIA

CITY           SKY/WX    TMP DP  RH WIND       PRES   REMARKS
DOWNTOWN L.A.  CLEAR     65  54  67 W5        29.95S
L.A. AIRPORT   PTCLDY    62  56  80 W9        29.96S
SAN DIEGO      MOCLDY    63  57  81 NW9       29.99S
BURBANK        CLEAR     66  53  63 SE8       29.94R
ONTARIO        CLEAR     72  54  53 SW12      29.94R
RIVERSIDE      CLEAR     71  55  56 W9        29.94R
PALM SPRINGS   CLEAR     94  47  20 NW16      29.79S
EL CENTRO NAS  CLEAR     92  33  12 W14       29.77R
IMPERIAL       CLEAR     94  33  11 CALM      29.74S
BLYTHE         CLEAR     96  28   9 S7        29.76R
NEEDLES        CLEAR     96  17   5 N6        29.79S
$$

NVZ020-UTZ003-290400-
SOUTHERN NEVADA-UTAH

CITY           SKY/WX    TMP DP  RH WIND       PRES   REMARKS
LAS VEGAS      CLEAR     91   8   4 NE6       29.89S
SALT LAKE CITY CLEAR     70  41  34 N8        30.13S
$$

NMZ009-TXZ055-290400-
NEW MEXICO-WEST TEXAS

CITY           SKY/WX    TMP DP  RH WIND       PRES   REMARKS
ALBUQUERQUE    CLOUDY    75  26  16 SW13      30.15R
EL PASO        PTCLDY    80  33  18 E9        30.04R
$$


........................KEY........................
SKY/WX - SKY CONDITION/WEATHER
TMP    - TEMPERATURE IN FAHRENHEIT
DP     - DEW POINT IN FAHRENHEIT
RH     - RELATIVE HUMIDITY IN PERCENT
WIND   - DIRECTION AND SPEED IN MILES PER HOUR (MPH)
VRB    - VARIABLE WIND DIRECTION
PRES   - MEAN SEA LEVEL PRESSURE IN INCHES OF MERCURY
         F - FALLING PRESSURE   R - RISING PRESSURE
         S - STEADY PRESSURE
VSB    - VISIBILITY IN MILES
HX     - HEAT INDEX IN FAHRENHEIT
WCI    - WIND CHILL INDEX IN FAHRENHEIT
TC     - TEMPERATURE IN CELSIUS WHICH IS ALSO KNOWN AS
         TEMPERATURE IN CENTIGRADE
AFB    - AIR FORCE BASE
         LUKE AFB IS LUKE AIR FORCE BASE
         DAVIS-MONTHAN IS DAVIS-MONTHAN AIR FORCE BASE
NAS    - NAVAL AIR STATION
         EL CENTRO NAS IS EL CENTRO NAVAL AIR STATION
N/A    - NOT AVAILABLE




USA.gov is the U.S. government's official web portal to all federal, state and local government web resources and services.